Regional Weather Roundup
Issued by NWS

Home | Current Version | Previous Version | Text Only | Print | Product List | Glossary On
Versions: 1 2 3 4 5 6 7 8 9 10 11 12 13 14 15 16 17 18 19 20 21 22 23 24 25 26 27 28 29 30 31 32 33 34 35 36 37 38 39 40 41 42 43 44 45 46
707
ASUS44 KJAN 020503
RWRMS

MISSISSIPPI HOURLY WEATHER ROUNDUP
NATIONAL WEATHER SERVICE JACKSON MS
1200 AM CDT TUE SEP 02 2014

NOTE: "FAIR: INDICATES FEW OR NO CLOUDS BELOW 12,000 FEET WITH NO
SIGNIFICANT WEATHER AND/OR OBSTRUCTIONS TO VISIBILITY.

MSZ001>002-007>008-010>013-018>021-025>028-034>036-020600-
NORTHWEST MISSISSIPPI

CITY           SKY/WX    TMP DP  RH WIND       PRES   REMARKS
CLARKSDALE     FAIR      75  73  94 CALM      29.99R
CLEVELAND      FAIR      77  74  91 S7        29.98R
GREENWOOD      CLEAR     77  72  84 S8        29.99S
GREENVILLE     CLEAR     76  73  91 S8        29.97S
GRENADA        FAIR      75  70  83 S5        30.01R
OLIVE BRANCH   CLEAR     75  75 100 S9        30.00R
OXFORD         FAIR      75  70  83 SW7       30.02S
TUNICA         CLEAR     77  72  83 S5        30.00R
$$

MSZ003>006-009-014>017-022>024-029>033-037>039-020600-
NORTHEAST MISSISSIPPI

CITY           SKY/WX    TMP DP  RH WIND       PRES   REMARKS
BELMONT        FAIR      77  70  79 S6        30.02S
COLUMBUS AFB   PTCLDY    78  71  81 S5        30.02S
CORINTH        FAIR      75  70  83 SE3       30.01R
GOLDN TRIANGLE PTCLDY    75  70  83 S5        30.03S
STARKVILLE     FAIR      75  70  83 CALM      30.03R
TUPELO         CLEAR     77  71  82 SW6       30.00F
$$

MSZ040-058-020600-
CENTRAL MISSISSIPPI

CITY           SKY/WX    TMP DP  RH WIND       PRES   REMARKS
JACKSON INTL   PTCLDY    76  73  91 S7        30.02F
JACKSON HAWKNS PTCLDY    77  72  84 S12       30.02F
MERIDIAN KEY   PTCLDY    75  72  90 S3        30.04S
MERIDIAN NAS   PTCLDY    76  71  85 CALM      30.04S
RAYMOND        FAIR      75  72  88 E6        30.02S
VICKSBURG      PTCLDY    77  74  90 SE7       29.99F
$$

MSZ059>079-020600-
SOUTH MISSISSIPPI

CITY           SKY/WX    TMP DP  RH WIND       PRES   REMARKS
BROOKHAVEN     FAIR      75  75 100 CALM      30.04F
HATTIESBURG    CLOUDY    79  75  87 CALM      30.03F
MCCOMB         MOCLDY    76  74  93 S7        30.03F
NATCHEZ        CLEAR     77  73  88 S9        30.00F
PINE BELT      CLOUDY    77  72  83 S3        30.05S
$$

MSZ080>082-020600-
COASTAL MISSISSIPPI

CITY           SKY/WX    TMP DP  RH WIND       PRES   REMARKS
BILOXI         MOCLDY    83  75  76 S8        30.03F HX  91
PASCAGOULA     PTCLDY    74  74 100 CALM      30.04F FOG
GULFPORT       MOCLDY    82  75  79 S6        30.02F
$$



USA.gov is the U.S. government's official web portal to all federal, state and local government web resources and services.